Location: Alvediston
(51.0078°N, 2.0364°W)
Time: 19:18:56
(UTC+00:00)

Meteor 1-11 Rocket - Pass Details

Date: 27 February 2020
Orbit: 831 x 916 km, 81.2° (Epoch: 30 March)

Event Time Altitude Azimuth Distance (km) Brightness Sun altitude
Rises 20:51:11 0° 203° (SSW) 3,401 6.8 -29.5°
Reaches altitude 10° 20:53:39 10° 207° (SSW) 2,460 6.1 -29.8°
Maximum altitude 20:59:08 58° 287° (WNW) 969 4.1 -30.6°
Drops below altitude 10° 21:04:36 10° 6° (N) 2,453 6.3 -31.3°
Sets 21:07:04 0° 11° (N) 3,391 7.1 -31.7°
